Change the Weather History Date:

Monday, April 7, 2014

  Actual Average Record
Temperature  
Mean Temperature 64 °F 68 °F  
Max Temperature 74 °F 78 °F 91 °F (1907)
Min Temperature 53 °F 57 °F 32 °F (1971)
Degree Days  
Heating Degree Days 1 2  
Month to date heating degree days 9 14  
Since 1 July heating degree days 1703 1343  
Cooling Degree Days 0 4  
Month to date cooling degree days 33 28  
Year to date cooling degree days 99 137  
Growing Degree Days 14 (Base 50)    
Moisture  
Dew Point 50 °F    
Average Humidity 65    
Maximum Humidity 89    
Minimum Humidity 41    
Precipitation  
Precipitation T in 0.10 in 2.28 in (1993)
Month to date precipitation 0.04 0.70  
Year to date precipitation 5.84 10.69  
Sea Level Pressure  
Sea Level Pressure 29.87 in    
Wind  
Wind Speed 10 mph (NW)    
Max Wind Speed 16 mph    
Max Gust Speed 21 mph    
Visibility 10 miles    
Events      
T = Trace of Precipitation, MM = Missing Value Source: NWS Daily Summary

Daily Weather History Graph

Daily Weather History Graph

Search for Another Location

Airport or City:

Trip Planner

Search our weather history database for the weather conditions in past years. The results will help you decide how hot, cold, wet, or windy it might be!

Date:

Astronomy

Apr. 07, 2014 Rise Set
Actual Time 7:03 AM CDT 7:43 PM CDT
Civil Twilight 6:39 AM CDT 8:07 PM CDT
Nautical Twilight 6:11 AM CDT 8:35 PM CDT
Astronomical Twilight 5:42 AM CDT 9:04 PM CDT
Moon 1:11 PM CDT (4/7) 2:09 AM CDT (4/7)
Length of Visible Light 13h 27m
Length of Day
12h 39m
First Quarter, 53% of the Moon is Illuminated
Apr 7
First Quarter
Apr 15
Full
Apr 22
Last Quarter
Apr 29
New
May 6
First Quarter

Hourly Weather History & Observations

Time (CDT) Temp. Dew Point Humidity Pressure Visibility Wind Dir Wind Speed Gust Speed Precip Events Conditions
12:53 AM 55.0 °F 51.1 °F 86% 29.80 in 10.0 mi NNW 10.4 mph - N/A   Overcast
1:53 AM 55.0 °F 51.1 °F 86% 29.80 in 8.0 mi NW 13.8 mph - N/A   Overcast
2:24 AM 55.4 °F 51.8 °F 88% 29.78 in 8.0 mi WNW 9.2 mph - N/A   Overcast
2:53 AM 55.0 °F 50.0 °F 83% 29.79 in 8.0 mi NW 6.9 mph - N/A   Mostly Cloudy
3:09 AM 53.6 °F 50.0 °F 88% 29.77 in 10.0 mi NW 10.4 mph - N/A   Scattered Clouds
3:53 AM 53.1 °F 48.9 °F 86% 29.78 in 10.0 mi NNW 9.2 mph - N/A   Mostly Cloudy
4:53 AM 54.0 °F 48.9 °F 83% 29.79 in 10.0 mi NNW 9.2 mph - N/A   Mostly Cloudy
5:53 AM 54.0 °F 48.9 °F 83% 29.83 in 10.0 mi NNW 12.7 mph - N/A   Overcast
6:53 AM 54.0 °F 48.9 °F 83% 29.84 in 10.0 mi NNW 9.2 mph - N/A   Overcast
7:53 AM 54.0 °F 48.9 °F 83% 29.86 in 10.0 mi NNW 12.7 mph - N/A   Overcast
8:53 AM 54.0 °F 48.9 °F 83% 29.89 in 10.0 mi North 12.7 mph 17.3 mph N/A   Overcast
9:53 AM 55.9 °F 48.9 °F 77% 29.92 in 10.0 mi North 8.1 mph - N/A   Overcast
10:24 AM 59.0 °F 50.0 °F 72% 29.90 in 10.0 mi North 8.1 mph - N/A   Mostly Cloudy
10:47 AM 57.2 °F 48.2 °F 72% 29.90 in 10.0 mi NW 8.1 mph - N/A   Scattered Clouds
10:53 AM 57.9 °F 48.9 °F 72% 29.92 in 10.0 mi NNW 8.1 mph - N/A   Scattered Clouds
11:53 AM 62.1 °F 50.0 °F 65% 29.93 in 10.0 mi NW 10.4 mph - N/A   Partly Cloudy
12:53 PM 66.0 °F 50.0 °F 56% 29.90 in 10.0 mi NNW 10.4 mph - N/A   Partly Cloudy
1:53 PM 69.1 °F 50.0 °F 51% 29.88 in 10.0 mi NW 10.4 mph - N/A   Partly Cloudy
2:53 PM 71.6 °F 50.0 °F 46% 29.84 in 10.0 mi West 9.2 mph - N/A   Partly Cloudy
3:53 PM 73.0 °F 48.9 °F 42% 29.84 in 10.0 mi NW 11.5 mph - N/A   Scattered Clouds
4:53 PM 75.0 °F 48.9 °F 40% 29.84 in 10.0 mi NNW 9.2 mph - N/A   Scattered Clouds
5:53 PM 73.9 °F 50.0 °F 43% 29.85 in 10.0 mi NNW 5.8 mph - N/A   Scattered Clouds
6:53 PM 73.0 °F 50.0 °F 44% 29.86 in 10.0 mi West 6.9 mph - N/A   Scattered Clouds
7:53 PM 70.0 °F 51.1 °F 51% 29.91 in 10.0 mi West 11.5 mph - N/A   Mostly Cloudy
8:53 PM 69.1 °F 51.1 °F 53% 29.92 in 10.0 mi NNW 10.4 mph - N/A   Scattered Clouds
9:53 PM 66.9 °F 52.0 °F 59% 29.98 in 10.0 mi NNW 12.7 mph - N/A   Mostly Cloudy
10:53 PM 64.9 °F 51.1 °F 61% 30.01 in 10.0 mi NNW 9.2 mph - N/A   Scattered Clouds
11:53 PM 61.0 °F 51.1 °F 70% 29.98 in 10.0 mi Calm Calm - N/A   Scattered Clouds